Flag for Canada Weather past 2 weeks in Mount Pearl, Newfoundland and Labrador, Canada

Now
70 °F

Fog.


Feels Like: 70 °F
Forecast: 64 / 83 °F
Wind: 12 mph from Southwest

Location: St. John's

Current Time: Jul 30, 2014 at 2:53:02 AM

Latest Report: Jul 30, 2014 at 2:30 AM


Visibility: 4 mi

Pressure: 30.19 "Hg

Humidity: 100%

Dew point: 70 °F

Location of Mount PearlLocation

Historic Weather in Mount Pearl — Graph

°F

Mount Pearl temperature yesterday

Maximum temperature yesterday: 72 °F (at 1:30 PM)
Minimum temperature yesterday: 55 °F (at 1:30 AM)
Average temperature yesterday: 64 °F

Past Weeks' High & Low Weather Summary

 TemperatureHumidityPressure
High84 °F (Jul 21, 2:30 PM)100% (Jul 16, 4:30 AM)30.26 "Hg (Jul 16, 4:30 AM)
Low48 °F (Jul 20, 1:30 AM)27% (Jul 21, 3:30 PM)29.66 "Hg (Jul 26, 2:30 AM)
Average67 °F78%30.01 "Hg
* Reported Jul 15 1:30 AM — Jul 30 1:30 AM, Mount Pearl, Weather by CustomWeather, © 2014

Note: Actual official high and low records may vary slightly from our data, if they occured in-between our weather recording intervals... More about our weather records

Advertising

Mount Pearl weather history for previous 24 hours

 ConditionsComfort  
Time TempWeatherWind HumidityBarometerVisibility
1:30 AM
Jul 30
70 °FFog.10 mph100%30.19 "Hg3 mi
12:30 AM64 °FFog.8 mph100%30.20 "Hg15 mi
11:30 PM
Jul 29
68 °FFog.9 mph94%30.20 "Hg5 mi
10:30 PM66 °FFog.9 mph100%30.21 "Hg1 mi
10:19 PM64 °FFog.10 mph100%30.21 "Hg1 mi
9:30 PM64 °FFog.6 mph100%30.21 "Hg15 mi
8:30 PM64 °FLow clouds.10 mph94%30.19 "Hg15 mi
7:30 PM66 °FPartly sunny.7 mph88%30.19 "Hg15 mi
6:30 PM70 °FBroken clouds.12 mph83%30.18 "Hg15 mi
5:30 PM70 °FPartly sunny.10 mph78%30.18 "Hg15 mi
4:30 PM72 °FPartly sunny.15 mph78%30.18 "Hg15 mi
3:30 PM70 °FPartly sunny.14 mph78%30.18 "Hg15 mi
2:30 PM72 °FBroken clouds.23 mph78%30.17 "Hg15 mi
1:30 PM72 °FBroken clouds.20 mph73%30.18 "Hg15 mi
12:30 PM70 °FPartly sunny.13 mph78%30.19 "Hg15 mi
11:30 AM70 °FScattered clouds.18 mph69%30.18 "Hg15 mi
10:30 AM68 °FScattered clouds.15 mph78%30.19 "Hg15 mi
9:30 AM64 °FPartly sunny.20 mph88%30.19 "Hg15 mi
8:30 AM59 °FMostly cloudy.13 mph100%30.19 "Hg12 mi
7:30 AM59 °FMostly cloudy.17 mph94%30.17 "Hg15 mi
6:30 AM57 °FFog.12 mph100%30.17 "Hg2 mi
6:23 AM57 °FFog.12 mph100%30.17 "Hg1 mi
5:30 AM57 °FFog.9 mph100%30.17 "Hg2 mi
4:30 AM57 °FFog.14 mph100%30.16 "Hg5 mi
3:30 AM57 °FFog.14 mph94%30.17 "Hg5 mi
3:22 AM57 °FFog.12 mph94%30.17 "Hg5 mi
2:30 AM55 °FFog.8 mph100%30.17 "Hg12 mi
2:16 AM57 °FPassing clouds.5 mph94%30.17 "Hg12 mi
Weather by CustomWeather, © 2014

See weather overviewHow to use our weather pages